リニア彗星

333P/LINEAR (2024)

English version
Home page
Updated on May 2, 2025

---------------------------------------------------------------------

・ プロフィール

・ 写真集

・ 軌道要素

Epoch 2025 May 5.0 TT = JDT 2460800.5
T 2024 Nov. 29.29816 TT                                 Pike
q   1.1129751            (2000.0)            P               Q
n   0.11367848     Peri.   26.01968     -0.12520560     +0.73231413
a   4.2203702      Node   115.70684     +0.73012385     -0.38878817
e   0.7362850      Incl.  132.02230     +0.67174602     +0.55907045
P   8.67
From 1171 observations 2016 Jan. 1-2025 Feb. 18, mean residual 0".6.

・ 星図

・ 光度変化

        H = 15.0  G = 0.15                [   ,-55]  (              〜2024年10月 5日)
        m1 =  6.5 + 5 logΔ + 80   log r  [-55,-30]  (2024年10月 5日〜2024年10月30日)
        m1 = 10.7 + 5 logΔ + 25.0 log r  [-30,110]  (2024年10月30日〜2025年 3月19日)
        H = 15.0  G = 0.15                [110,   ]  (2025年 3月19日〜              )

---------------------------------------------------------------------

軌道要素はM.P.E.C. 2025-D254に掲載されたものです。
星図はステラナビゲータ Ver.10 (アストロアーツ) で作成したものです。
光度グラフはComet for Windowsで作成したものです。

---------------------------------------------------------------------

Copyright(C) Seiichi Yoshida (comet@aerith.net). All rights reserved.